Flag for United Kingdom Weather past 2 weeks in Winchester, England, United Kingdom

Now
48 °F

Passing clouds.


Feels Like: 44 °F
Forecast: 44 / 54 °F
Wind: 9 mph from Southwest

Location: Middle Wallop

Current Time: Mar 29, 2015 at 7:40:31 AM

Latest Report: Mar 29, 2015 at 6:50 AM


Visibility: 3 mi

Pressure: 29.62 "Hg

Humidity: 100%

Dew point: 48 °F

Location of WinchesterLocation

Historic Weather in Winchester — Graph

°F

Winchester temperature yesterday

Maximum temperature yesterday: 55 °F (at 3:50 PM)
Minimum temperature yesterday: 46 °F (at 12:50 AM)
Average temperature yesterday: 51 °F

Past Weeks' High & Low Weather Summary

 TemperatureHumidityPressure
High55 °F (Mar 20, 3:50 PM)100% (Mar 17, 7:50 AM)30.54 "Hg (Mar 17, 7:50 AM)
Low30 °F (Mar 25, 5:50 AM)40% (Mar 25, 1:50 PM)29.53 "Hg (Mar 26, 6:50 AM)
Average44 °F75%30.15 "Hg
* Reported Mar 14 3:50 AM — Mar 29 4:50 AM, Winchester, Weather by CustomWeather, © 2015

Note: Actual official high and low records may vary slightly from our data, if they occured in-between our weather recording intervals... More about our weather records

Advertising

Winchester weather history for previous 24 hours

 ConditionsComfort  
Time TempWeatherWind HumidityBarometerVisibility
4:50 AM
Sun, Mar 29
50 °FPassing clouds.13 mph76%29.68 "HgN/A
3:50 AM52 °FPassing clouds.14 mph72%29.71 "HgN/A
2:50 AM52 °FPassing clouds.20 mph77%29.71 "HgN/A
12:50 AM50 °FPassing clouds.20 mph82%29.71 "HgN/A
11:50 PM
Sat, Mar 28
50 °FPassing clouds.18 mph76%29.74 "HgN/A
10:50 PM48 °FPassing clouds.18 mph76%29.77 "HgN/A
9:50 PM50 °FPassing clouds.18 mph71%29.80 "HgN/A
8:50 PM52 °FPassing clouds.17 mph72%29.77 "HgN/A
7:50 PM52 °FPassing clouds.21 mph72%29.77 "HgN/A
6:50 PM54 °FPassing clouds.17 mph72%29.77 "HgN/A
5:50 PM54 °FBroken clouds.15 mph77%29.77 "HgN/A
4:50 PM55 °FBroken clouds.14 mph82%29.77 "HgN/A
3:50 PM55 °FPartly sunny.15 mph82%29.77 "HgN/A
2:50 PM54 °FPartly sunny.15 mph88%29.80 "HgN/A
1:50 PM54 °FPartly sunny.20 mph88%29.83 "HgN/A
12:50 PM54 °FPartly sunny.18 mph88%29.86 "HgN/A
11:50 AM52 °FPartly sunny.20 mph94%29.86 "HgN/A
10:50 AM54 °FPartly sunny.24 mph82%29.89 "HgN/A
9:50 AM54 °FBroken clouds.17 mph88%29.92 "HgN/A
8:50 AM52 °FPartly sunny.13 mph100%29.92 "HgN/A
7:50 AM52 °FLow clouds.12 mph94%29.95 "HgN/A
Weather by CustomWeather, © 2015

See weather overviewHow to use our weather pages